Location: Peterborough
(44.3091°N, 78.3197°W)
Time: 20:09:04
(UTC-04:00)

A-11 Canister half - Pass Details

Date: 31 March 2023
Orbit: 1526 x 1682 km, 47.3° (Epoch: 06 June)

Event Time Altitude Azimuth Distance (km) Brightness Sun altitude
Rises 20:31:53 0° 290° (WNW) 4,900 14.0 -10.1°
Reaches altitude 10° 20:35:03 10° 290° (WNW) 3,895 12.7 -10.6°
Maximum altitude 20:45:02 84° 204° (SSW) 1,622 9.1 -12.3°
Enters shadow 20:53:03 17° 118° (ESE) 3,270 10.1 -13.6°
